Location: Launay
(47.2429°N, 1.5727°E)
Time: 22:45:21
(UTC+00:00)

NOSS 3-1 (A) - Pass Details

Date: 19 May 2025
Orbit: 639 x 1569 km, 63.4° (Epoch: 10 June)

Event Time Altitude Azimuth Distance (km) Brightness Sun altitude
Exits shadow 22:37:42 11° 233° (SW) 2,073 5.0 -20.8°
Maximum altitude 22:42:18 65° 314° (NW) 852 3.4 -21.1°
Drops below altitude 10° 22:48:08 10° 37° (NE) 2,600 6.2 -21.3°
Sets 22:51:00 0° 40° (NE) 3,695 7.0 -21.5°
